Regional Weather Roundup
Issued by NWS

Home | Current Version | Previous Version | Text Only | Print | Product List | Glossary On
Versions: 1 2 3 4 5 6 7 8 9 10 11 12 13 14 15 16 17 18 19 20 21 22 23 24 25 26 27 28 29 30 31 32 33 34 35 36 37 38 39 40 41 42 43 44 45 46 47 48 49 50
000
ASUS44 KFWD 220303
RWRTX
NORTH TEXAS HOURLY WEATHER ROUNDUP
NATIONAL WEATHER SERVICE FORT WORTH TX
900 PM CST SUN JAN 21 2018

NOTE: "FAIR" INDICATES FEW OR NO CLOUDS BELOW 12,000 FEET WITH NO
SIGNIFICANT WEATHER AND/OR OBSTRUCTIONS TO VISIBILITY.

TXZ118-119-220400-
DALLAS/FORT WORTH METROPLEX

CITY           SKY/WX    TMP DP  RH WIND       PRES   REMARKS
DFW AIRPORT    MOCLDY    68  53  58 W18G26    29.79R
DALLAS LOVE    MOCLDY    67  62  84 W16G22    29.79R
FTW MEACHAM    CLOUDY    66  17  15 W14G23    29.82R
DAL-EXECUTIVE  MOCLDY    67  63  87 S10G21    29.79R
FTW-ALLIANCE   CLOUDY    66  13  12 W23G30    29.81R
FTW-NAS-JRB    CLOUDY    65  13  13 W10       29.83R
FTW-SPINKS     CLOUDY    63  37  37 W20G31    29.85R HAZE
ARLINGTON      CLOUDY    66  61  84 W8        29.81R
GRAND PRAIRIE  FAIR      66  60  81 SW10      29.83R
ADDISON        CLOUDY    66  63  88 SW13G25   29.78R
MESQUITE       CLOUDY    66  62  86 S15       29.79R
LANCASTER      MOCLDY    65  62  89 S13G21    29.80R
$$

TXZ091>094-102>105-117-120-121-131>134-220400-
NORTH CENTRAL TEXAS

CITY           SKY/WX    TMP DP  RH WIND       PRES   REMARKS
SHRMAN/DENISON FAIR      62  40  43 W24G33    29.78R
GAINESVILLE    CLOUDY    63   7  10 W14G20    29.81R
BOWIE          FAIR      60   7  12 W15       29.81R
BRIDGEPORT     FAIR      62  11  13 W16G25    29.83R
DECATUR        FAIR      62   4  10 W13G20    29.80R
DENTON         CLOUDY    65  17  15 W18       29.79R
MCKINNEY       MOCLDY    66  63  90 W25G32    29.81R THUNDER
BONHAM         CLOUDY    64  61  90 S21G30    29.74R
ROCKWALL       CLOUDY    66  64  91 SW20G25   29.78R
TERRELL        MOCLDY    66  62  87 SW16      29.79R
WAXAHACHIE     CLOUDY    65  64  97 S15G22    29.81R
CLEBURNE       FAIR      64  32  29 W15       29.85R
GRANBURY       CLOUDY    65  13  13 W9G17     29.85R
$$

TXZ083>090-098>101-113>116-127>130-139>142-154-155-220400-
WESTERN NORTH TEXAS

CITY           SKY/WX    TMP DP  RH WIND       PRES   REMARKS
WICHITA FALLS  FAIR      55   7  14 SW14      29.78R
WF-KICKAPOO    FAIR      57   8  14 W7G16     29.81S
VERNON         FAIR      46   2  16 SW8       29.80R
ABILENE        FAIR      53   3  13 W18       29.89R
ABILENE-DYESS  FAIR      54   6  14 W12       29.90R
GRAHAM           N/A     57  10  15 SW12      29.84R
BRECKENRIDGE   FAIR      55   7  14 W10       29.88R
CISCO          MOCLDY    55   3  12 W9        29.88R
EASTLAND       FAIR      58   8  13 W10       29.87S
RANGER         FAIR      57  12  17 W9        29.86S
MINERAL WELLS  CLOUDY    61   4  10 W16G23    29.82R
STEPHENVILLE   FAIR      62   6  10 W13       29.88R
COMANCHE       FAIR      59  14  17 NW9       29.89R
COLEMAN          N/A    N/A N/A N/A MISG        N/A
$$

TXZ143>147-156>162-174-175-220400-
CENTRAL TEXAS

CITY           SKY/WX    TMP DP  RH WIND       PRES   REMARKS
WACO           FAIR      63  61  93 S9        29.83R
WACO-TSTC      CLEAR     64  63  94 S10       29.84R
WACO-MCGREGOR  FAIR      63  62  97 S12       29.84R
CORSICANA      CLOUDY    66  64  93 S16       29.83R
MEXIA          CLOUDY    66  62  87 S15       29.84R
HEARNE         CLOUDY    67  66  97 S9        29.87R
CAMERON        FAIR      65  63  91 S9        29.86R
TEMPLE         FAIR      63  62  97 S12       29.86R
KILLEEN        FAIR      62  60  93 S7        29.85R
KILLEEN-SKYLRK FAIR      62  60  93 S8        29.86R
FORT HOOD      FAIR      62  60  93 SW9       29.82R
GATESVILLE     FAIR      64  52  63 W14G22    29.89R
HAMILTON       FAIR      58  30  34 W8        29.89R
LAMPASAS       FAIR      61  53  74 W6        29.88R
$$

TXZ095>097-106>112-122>126-135>138-148>153-164>167-220400-
EAST TEXAS

CITY           SKY/WX    TMP DP  RH WIND       PRES   REMARKS
PARIS          TSTM      63  61  93 S16G26    29.74S
SULPHUR SPRNGS CLOUDY    63  63 100 SW17      29.78R
MOUNT PLEASANT MOCLDY    68  61  78 S25G31    29.75F
GILMER         CLOUDY    67  61  80 S10G23    29.79R
MINEOLA        CLOUDY    68  61  77 S13G26    29.78R
TYLER          LGT RAIN  67  63  87 S23G32    29.80R
LONGVIEW       CLOUDY    68  64  87 S22G30    29.80F
MARSHALL       CLOUDY    65  60  82 S14G22    29.83F
ATHENS         LGT RAIN  63  63 100 S9G17     29.81R
PALESTINE      CLOUDY    67  64  90 S10       29.85R
JACKSONVILLE   CLOUDY    67  63  85 S14G22    29.86R
CENTER         CLOUDY    66  61  86 S13G18    29.88F
NACOGDOCHES    LGT RAIN  66  64  93 S9        29.87F
LUFKIN         LGT RAIN  67  64  90 S12       29.87F FOG
$$

SUPPLEMENTAL OBSERVATIONS (NWS FORT WORTH AREA)

CITY           SKY/WX    TMP DP  RH WIND       PRES   REMARKS
$$

SUPPLEMENTAL OBSERVATIONS (NWS NORMAN AREA)

CITY           SKY/WX    TMP DP  RH WIND       PRES   REMARKS
GOODLETT         N/A     50  12  21 SW16      29.79R
ODELL            N/A     47  12  24 SW13      29.80R
CROWELL          N/A     50  11  21 SW12      29.83R
KNOX CITY        N/A     52   3  13 SW10      29.86R
SEYMOUR          N/A     53   4  14 SW14      29.84R
$$

SUPPLEMENTAL OBSERVATIONS (NWS SAN ANGELO AREA)

CITY           SKY/WX    TMP DP  RH WIND       PRES   REMARKS
WEINERT          N/A     53   7  15 SW15      29.86R
HASKELL          N/A     52   4  14 SW14      29.87R
THROCKMORTON     N/A     56  18  22 W17       29.87R
STAMFORD         N/A     51   7  16 W14       29.89R
CLYDE            N/A     50   7  17 W10       29.90S
$$

SUPPLEMENTAL OBSERVATIONS (NWS SHREVEPORT AREA)

CITY           SKY/WX    TMP DP  RH WIND       PRES   REMARKS
$$

SUPPLEMENTAL OBSERVATIONS ARE A COLLECTION OF AUTOMATED INSTRUMENTS
THAT ARE MAINTAINED BY A VARIETY OF FEDERAL AND STATE AGENCIES.
CERTAIN ELEMENTS...SUCH AS HUMIDITY VALUES AND SUSTAINED WIND
SPEEDS...MAY BE APPROXIMATED.




USA.gov is the U.S. government's official web portal to all federal, state and local government web resources and services.